Flag for France Weather past 2 weeks in Rouen, France

Now
52 °F

Overcast.


Feels Like: 46 °F
Forecast: 45 / 54 °F
Wind: 18 mph from Southwest

Location: Rouen Airport

Current Time: Dec 18, 2014 at 6:42:00 PM

Latest Report: Dec 18, 2014 at 6:00 PM


Visibility: N/A

Pressure: 30.09 "Hg

Humidity: 88%

Dew point: 48 °F

Location of RouenLocation

Historic Weather in Rouen — Graph

°F

Rouen temperature yesterday

Maximum temperature yesterday: 52 °F (at 10:30 AM)
Minimum temperature yesterday: 41 °F (at 12:00 AM)
Average temperature yesterday: 49 °F

Past Weeks' High & Low Weather Summary

 TemperatureHumidityPressure
High54 °F (Dec 18, 12:00 AM)100% (Dec 3, 10:00 PM)30.45 "Hg (Dec 3, 10:00 PM)
Low28 °F (Dec 7, 4:30 AM)70% (Dec 8, 5:00 PM)29.47 "Hg (Dec 12, 2:30 PM)
Average41 °F91%30.03 "Hg
* Reported Dec 3 5:00 PM — Dec 18 5:30 PM, Rouen, Weather by CustomWeather, © 2014

Note: Actual official high and low records may vary slightly from our data, if they occured in-between our weather recording intervals... More about our weather records

Advertising

Rouen weather history for previous 24 hours

 ConditionsComfort  
Time TempWeatherWind HumidityBarometerVisibility
5:30 PM
Dec 18
52 °FOvercast.20 mph88%30.07 "HgN/A
5:00 PM54 °FMostly cloudy.18 mph82%30.09 "HgN/A
4:30 PM54 °FOvercast.15 mph82%30.07 "HgN/A
4:00 PM54 °FOvercast.20 mph82%30.07 "HgN/A
3:30 PM54 °FOvercast.18 mph82%30.07 "HgN/A
3:00 PM54 °FOvercast.18 mph88%30.07 "HgN/A
2:30 PM54 °FMostly cloudy.17 mph88%30.07 "HgN/A
2:00 PM54 °FOvercast.20 mph88%30.07 "HgN/A
1:30 PM54 °FOvercast.18 mph88%30.07 "HgN/A
1:00 PM54 °FLow clouds.18 mph88%30.07 "HgN/A
12:30 PM54 °FLow clouds.20 mph88%30.07 "HgN/A
12:00 PM54 °FLow clouds.18 mph94%30.07 "HgN/A
11:30 AM54 °FLow clouds.18 mph94%30.04 "HgN/A
11:00 AM54 °FLow clouds.16 mph94%30.04 "HgN/A
10:30 AM54 °FLow clouds.17 mph94%30.04 "HgN/A
10:00 AM54 °FLow clouds.15 mph94%30.04 "HgN/A
9:30 AM54 °FLow clouds.17 mph94%30.04 "HgN/A
9:00 AM54 °FLow clouds.18 mph94%30.01 "HgN/A
8:30 AM54 °FLow clouds.14 mph94%30.01 "HgN/A
8:00 AM54 °FLow clouds.17 mph94%30.01 "HgN/A
7:30 AM54 °FDrizzle. Low clouds.16 mph94%30.01 "HgN/A
7:00 AM54 °FDrizzle. Low clouds.16 mph94%29.98 "Hg4 mi
6:30 AM54 °FDrizzle. Fog.17 mph94%29.98 "Hg3 mi
6:00 AM54 °FDrizzle. Fog.17 mph94%29.98 "Hg3 mi
5:30 AM54 °FDrizzle. Fog.17 mph94%29.98 "Hg3 mi
4:30 AM54 °FLow clouds.18 mph94%29.95 "Hg5 mi
4:00 AM54 °FLow clouds.18 mph94%29.95 "HgN/A
3:30 AM54 °FDrizzle. Low clouds.17 mph94%29.95 "HgN/A
3:00 AM54 °FLight rain. Low clouds.18 mph94%29.95 "Hg5 mi
2:30 AM54 °FLight rain. Fog.17 mph94%29.95 "Hg2 mi
2:00 AM54 °FLight rain. Fog.16 mph94%29.95 "Hg1 mi
1:30 AM54 °FLight rain. Fog.17 mph94%29.92 "Hg2 mi
1:00 AM54 °FDrizzle. Fog.15 mph94%29.92 "Hg3 mi
12:30 AM54 °FLight rain. Fog.16 mph94%29.92 "Hg1 mi
12:00 AM54 °FLight rain. Fog.15 mph94%29.92 "Hg2 mi
11:30 PM
Dec 17
52 °FDrizzle. Fog.14 mph100%29.92 "Hg2 mi
11:00 PM52 °FDrizzle. Fog.13 mph100%29.92 "Hg1 mi
10:30 PM52 °FLight rain. Fog.10 mph94%29.92 "Hg1 mi
10:00 PM52 °FLight rain. Fog.10 mph94%29.92 "Hg1 mi
9:30 PM52 °FLight rain. Fog.12 mph94%29.92 "Hg1 mi
9:00 PM52 °FLight rain. Fog.10 mph94%29.92 "Hg1 mi
8:30 PM52 °FLight rain. Fog.12 mph94%29.92 "Hg2 mi
8:00 PM52 °FLight rain. Mostly cloudy.10 mph94%29.92 "Hg5 mi
7:30 PM52 °FLight rain. Fog.9 mph94%29.92 "Hg1 mi
7:00 PM52 °FDrizzle. Fog.7 mph94%29.92 "Hg3 mi
6:30 PM52 °FDrizzle. Fog.10 mph94%29.89 "Hg2 mi
6:00 PM52 °FDrizzle. Fog.9 mph94%29.89 "Hg2 mi
Weather by CustomWeather, © 2014

See weather overviewHow to use our weather pages